TimeEST,TemperatureF,Dew PointF,Humidity,Sea Level PressureIn,VisibilityMPH,Wind Direction,Wind SpeedMPH,Gust SpeedMPH,PrecipitationIn,Events,Conditions,WindDirDegrees,DateUTC
12:54 AM,33.1,30.9,92,30.03,3.0,Calm,Calm,-,N/A,,Overcast,0,2013-12-10 05:54:00
1:54 AM,33.1,30.0,89,30.05,4.0,Calm,Calm,-,N/A,,Mostly Cloudy,0,2013-12-10 06:54:00
2:19 AM,33.8,30.2,87,30.00,3.0,Calm,Calm,-,N/A,,Scattered Clouds,0,2013-12-10 07:19:00
2:45 AM,32.0,30.2,93,30.00,2.5,South,4.6,-,N/A,,Scattered Clouds,190,2013-12-10 07:45:00
2:54 AM,32.0,30.9,96,30.03,2.5,Calm,Calm,-,N/A,,Partly Cloudy,0,2013-12-10 07:54:00
3:22 AM,33.8,30.2,87,30.05,4.0,SW,4.6,-,N/A,,Partly Cloudy,230,2013-12-10 08:22:00
3:54 AM,34.0,30.9,89,30.05,6.0,West,4.6,-,N/A,,Clear,270,2013-12-10 08:54:00
4:54 AM,34.0,30.9,89,30.01,7.0,Calm,Calm,-,N/A,,Mostly Cloudy,0,2013-12-10 09:54:00
5:54 AM,35.1,28.0,76,30.06,9.0,WNW,9.2,-,N/A,,Overcast,290,2013-12-10 10:54:00
6:19 AM,35.6,26.6,70,30.04,2.5,WNW,11.5,-,0.00,Snow,Light Snow,300,2013-12-10 11:19:00
6:26 AM,33.8,28.4,81,30.04,0.8,West,8.1,-,0.00,Snow,Light Snow,280,2013-12-10 11:26:00
6:32 AM,32.0,28.4,87,30.03,0.5,WNW,10.4,-,0.01,Fog-Snow,Snow,300,2013-12-10 11:32:00
6:41 AM,32.0,28.4,87,30.02,0.5,WNW,9.2,-,0.02,Fog-Snow,Snow,300,2013-12-10 11:41:00
6:54 AM,32.0,30.0,92,30.05,0.8,WNW,6.9,-,0.04,Snow,Light Snow,300,2013-12-10 11:54:00
7:54 AM,30.9,30.0,96,30.03,0.5,SSW,4.6,-,0.06,Fog-Snow,Snow,210,2013-12-10 12:54:00
8:16 AM,30.2,30.2,100,30.01,0.8,SSW,4.6,-,0.02,Snow,Light Snow,210,2013-12-10 13:16:00
8:47 AM,30.2,30.2,100,30.01,0.5,WSW,5.8,-,0.03,Fog-Snow,Snow,250,2013-12-10 13:47:00
8:54 AM,30.9,28.9,92,30.03,0.8,WSW,5.8,-,0.03,Snow,Light Snow,240,2013-12-10 13:54:00
9:07 AM,30.2,28.4,93,30.00,0.8,WSW,5.8,-,0.00,Snow,Light Snow,250,2013-12-10 14:07:00
9:10 AM,30.2,28.4,93,30.00,1.0,WSW,5.8,-,0.00,Snow,Light Snow,250,2013-12-10 14:10:00
9:54 AM,32.0,28.9,88,29.99,1.2,WSW,4.6,-,0.00,Snow,Light Snow,250,2013-12-10 14:54:00
10:02 AM,32.0,28.4,87,29.97,0.8,West,4.6,-,0.00,Snow,Light Snow,260,2013-12-10 15:02:00
10:12 AM,30.2,28.4,93,29.96,1.5,West,5.8,-,0.00,Snow,Light Snow,270,2013-12-10 15:12:00
10:22 AM,30.2,28.4,93,29.97,2.0,West,8.1,-,0.00,Snow,Light Snow,280,2013-12-10 15:22:00
10:30 AM,32.0,28.4,87,29.98,3.0,West,8.1,-,0.00,Snow,Light Snow,260,2013-12-10 15:30:00
10:40 AM,32.0,28.4,87,29.96,2.0,West,5.8,-,0.00,Snow,Light Snow,260,2013-12-10 15:40:00
10:54 AM,32.0,28.0,85,29.99,1.8,West,9.2,-,0.01,Snow,Light Snow,270,2013-12-10 15:54:00
11:09 AM,32.0,28.4,87,29.96,2.5,West,5.8,-,0.00,Snow,Light Snow,270,2013-12-10 16:09:00
11:16 AM,32.0,28.4,87,29.97,4.0,WSW,6.9,-,0.00,Snow,Light Snow,250,2013-12-10 16:16:00
11:23 AM,32.0,28.4,87,29.97,2.0,West,8.1,-,0.00,Snow,Light Snow,270,2013-12-10 16:23:00
11:54 AM,32.0,28.0,85,29.98,1.0,West,6.9,-,0.00,Snow,Light Snow,270,2013-12-10 16:54:00
12:20 PM,32.0,28.4,87,29.95,1.0,West,8.1,-,0.00,Snow,Light Snow,270,2013-12-10 17:20:00
12:27 PM,32.0,28.4,87,29.95,0.8,West,6.9,-,0.00,Snow,Light Snow,270,2013-12-10 17:27:00
12:38 PM,32.0,28.4,87,29.95,1.0,West,8.1,-,0.00,Snow,Light Snow,270,2013-12-10 17:38:00
12:54 PM,32.0,28.9,88,29.98,1.0,West,6.9,-,0.00,Snow,Light Snow,280,2013-12-10 17:54:00
1:01 PM,32.0,28.4,87,29.95,1.0,West,6.9,-,0.00,Snow,Light Snow,270,2013-12-10 18:01:00
1:07 PM,32.0,28.4,87,29.95,1.0,West,4.6,-,0.00,,Overcast,260,2013-12-10 18:07:00
1:54 PM,33.1,27.0,78,29.97,1.0,West,6.9,-,0.00,,Overcast,260,2013-12-10 18:54:00
2:54 PM,33.1,25.0,72,29.99,1.0,West,11.5,-,N/A,,Mostly Cloudy,280,2013-12-10 19:54:00
3:54 PM,33.1,23.0,66,30.00,10.0,West,9.2,-,N/A,,Clear,280,2013-12-10 20:54:00
4:54 PM,30.9,19.0,61,30.03,10.0,West,10.4,-,N/A,,Clear,270,2013-12-10 21:54:00
5:54 PM,30.9,15.1,52,30.04,10.0,WNW,16.1,-,N/A,,Clear,290,2013-12-10 22:54:00
6:54 PM,28.0,17.1,63,30.08,10.0,West,5.8,-,N/A,,Clear,270,2013-12-10 23:54:00
7:54 PM,27.0,12.9,56,30.09,10.0,WSW,3.5,-,N/A,,Clear,250,2013-12-11 00:54:00
8:54 PM,27.0,12.9,56,30.11,10.0,West,3.5,-,N/A,,Clear,260,2013-12-11 01:54:00
9:54 PM,25.0,15.1,66,30.13,10.0,WSW,8.1,-,N/A,,Clear,250,2013-12-11 02:54:00
10:54 PM,25.0,12.9,60,30.16,10.0,SSE,3.5,-,N/A,,Clear,150,2013-12-11 03:54:00
11:54 PM,26.1,12.0,55,30.19,10.0,West,9.2,-,N/A,,Clear,280,2013-12-11 04:54:00